Location: Härggis
(46.9540°N, 8.4897°E)
Time: 23:56:55
(UTC+00:00)

Helios 1B rocket - Pass Details

Date: 27 May 2022
Orbit: 569 x 578 km, 98.2° (Epoch: 02 July)

Event Time Altitude Azimuth Distance (km) Brightness Sun altitude
Rises 02:41:35 0° 14° (NNE) 2,786 7.0 -8.5°
Reaches altitude 10° 02:43:44 10° 15° (NNE) 1,883 6.1 -8.2°
Maximum altitude 02:47:50 84° 104° (ESE) 579 2.5 -7.7°
Drops below altitude 10° 02:51:52 10° 193° (SSW) 1,867 4.5 -7.2°
Enters shadow 02:53:06 - 194° (SSW) 2,381 5.1 -7.0°
